www.pogodaiklimat.ru

Погода и климат >> Архив погоды >> Россия >> Рязанская область >> Рязань


АРХИВ ПОГОДЫ в Рязани

Время (UTC), дата Ветер
(напр.,м/с)
 
Видим.   Явления Облачность Т
(С)
Тd
(С)
f
(%)
Тe
(С)
Тes
(С)
Комфортность P
(гПа)
Po
(гПа)
Тmin
(С)
Tmax
(С)
R
(мм)
R24
(мм)
S
(см)
21 15.02 З 3 10 км 10/0
[Ac und]
+1.6 +0.6 93 -3 -3 тепло 1011.2 991.7
00 16.02 З 3 10 км 9/8 600 м
[Sc diur, vesp Ac trans Ci fib]
+1.0 0.0 93 -4 -4 тепло 1010.7 991.1
03 16.02 СЗ 3 10 км 3/3 600 м
[Sc diur, vesp]
+0.6 -0.7 91 -4 -4 тепло 1011.1 991.6 +0.5 0.0 37
06 16.02 СЗ 2 20 км 10/10 600 м
[Sc diur, vesp]
+0.1 -0.9 93 -4 -4 тепло 1012.4 992.8 -0.6
09 16.02 СЗ 4-11
{11}
20 км 5/0
[Sc diur, vesp]
+3.1 -1.6 71 -1 +1 тепло 1012.9 993.5
12 16.02 СЗ 3
{11}
20 км ясно +3.8 -2.2 65 0 +2 тепло 1012.8 993.4
15 16.02 З 1 20 км ясно -0.2 -2.1 87 -2 -2 тепло 1013.6 993.9 +3.9
18 16.02 ЮЗ 1 20 км ясно -2.0 -2.9 94 -4 -4 тепло 1012.1 992.3
21 16.02 З 2 10 км 10/10 600 м
[Sc diur, vesp]
-1.4 -1.7 98 -5 -5 тепло 1009.7 990.1
00 17.02 З 3 10 км 10/10 600 м
[Sc diur, vesp]
+0.4 -0.5 94 -4 -4 тепло 1006.3 986.8
03 17.02 ЮЗ 3 10 км ясно -1.8 -2.3 96 -7 -7 по сезону 1002.3 982.8 -3.0 37
06 17.02 З 3 20 км 9/0
[Ac trans Ci fib]
+0.2 -1.6 88 -4 -4 тепло 999.9 980.5
09 17.02 З 4 20 км 10/0
[Ac As]
+3.1 -0.5 77 -1 -1 тепло 997.8 978.7
12 17.02 З 3
{10}
20 км ясно +5.0 -1.2 64 +2 +3 тепло 995.9 977.0
15 17.02 СЗ 3
{10}
20 км 8/6 600 м
[Sc Ac trans]
+3.4 -5.6 52 0 0 тепло 996.5 977.4 +5.0
18 17.02 СЗ 5-10
{14}
20 км 10/0
[Ac und]
+1.2 -4.5 66 -4 -4 тепло 998.9 979.6
21 17.02 СЗ 5
{13}
20 км 10/10 600 м
[Sc]
0.0 -4.2 73 -6 -6 тепло 1000.1 980.7
00 18.02 СЗ 4
{14}
20 км {ливн. осадки} 10/10 600 м
[Sc]
-0.5 -6.5 64 -6 -6 тепло 1002.5 983.0
03 18.02 С 6-14
{14}
20 км 10/0
[Ac und]
-1.8 -7.0 68 -9 -9 по сезону 1005.4 985.8 -1.8 0.0 35
06 18.02 С 7-14
{16}
20 км 9/0
[Ac trans]
-2.0 -10.3 53 -9 -9 по сезону 1008.9 989.2 -2.0
09 18.02 С 6-12
{15}
20 км 4/0
[Ac trans]
-1.3 -11.9 44 -7 -6 по сезону 1012.0 992.3
12 18.02 С 5-12
{15}
20 км 3/0
[Ac trans]
-1.2 -12.7 41 -7 -6 по сезону 1014.3 994.6
15 18.02 С 2
{12}
20 км ясно -3.2 -12.2 50 -7 -7 по сезону 1017.1 997.2 -0.7
18 18.02 С 2
{10}
20 км ясно -4.4 -12.7 52 -8 -8 по сезону 1019.6 999.5
21 18.02 С 1 20 км ясно -6.7 -13.6 58 -9 -9 по сезону 1021.5 1001.2
00 19.02 штиль 0 20 км 4/0
[Ci fib]
-11.0 -14.3 77 -11 -11 по сезону 1023.1 1002.4
03 19.02 штиль 0 10 км 6/0
[Ci fib]
-13.2 -14.2 92 -13 -13 по сезону 1023.6 1002.8 -13.4 34
06 19.02 Ю 1 20 км 6/0
[Ac trans Ci fib]
-11.1 -13.7 81 -13 -12 по сезону 1022.7 1002.0 -13.6
09 19.02 ЮЗ 3 20 км 8/0
[Ac trans Ci fib]
-4.5 -11.8 57 -9 -7 по сезону 1020.3 1000.2
12 19.02 ЮЗ 3
{10}
20 км 9/0
[Ac trans Ci fib]
-1.8 -10.1 53 -6 -5 по сезону 1017.2 997.4
15 19.02 ЮЗ 4
{10}
20 км 9/0
[Ac cast]
-2.4 -9.6 58 -8 -8 по сезону 1015.5 995.6 -1.5
18 19.02 ЮЗ 3 20 км 8/0
[Ac cast Ci fib]
-2.4 -9.3 59 -7 -7 по сезону 1014.2 994.4
21 19.02 ЮЗ 3 20 км 9/0
[Ac cast Ci fib]
-2.9 -8.9 63 -8 -8 по сезону 1012.2 992.4
00 20.02 ЮЗ 4 20 км 8/0
[Ci fib]
-4.5 -9.5 68 -11 -11 по сезону 1010.4 990.4
03 20.02 ЮЗ 4 20 км 10/0
[As op]
-3.8 -8.2 71 -10 -10 по сезону 1007.3 987.5 -5.3 34
06 20.02 ЮЗ 4 20 км 10/0
[As trans]
-2.4 -4.8 84 -8 -8 по сезону 1005.4 985.8
09 20.02 ЮЗ 4 20 км 10/0
[As trans]
+0.3 -1.8 86 -5 -4 тепло 1004.3 984.8
12 20.02 ЮЗ 3
{10}
20 км 10/0
[As trans]
+0.9 -0.7 89 -4 -3 по сезону 1003.4 984.0
15 20.02 ЮЗ 5 20 км в посл. час ливневой снег 10/10 600 м
[Sc]
+0.6 -0.5 92 -5 -5 по сезону 1002.8 983.4 +1.1 0.0
18 20.02 ЮЗ 4 10 км {ливн. осадки} 10/10 600 м
[Sc]
+0.6 -0.2 94 -5 -5 тепло 1001.8 982.5
21 20.02 ЮЗ 3 10 км 10/10 600 м
[Sc]
+1.1 +0.4 95 -4 -4 тепло 1000.2 980.9
00 21.02 ЮЗ 4 10 км слаб. дождь 10/10 600 м
[Sc]
+1.3 +0.7 96 -4 -4 тепло 997.9 978.7
03 21.02 ЮЗ 4 10 км слаб. снег {дождь} 10/10 600 м
[Sc]
+0.8 +0.5 98 -5 -5 тепло 996.1 976.8 +0.5 0.4 34
06 21.02 ЮЗ 2 4000 м слаб. снег {дождь} 10/10 300 м
[Sc]
+0.8 +0.6 99 -3 -3 тепло 995.2 976.0
09 21.02 З 3
{11}
20 км в посл. час снег 10/10 300 м
[Sc]
-1.1 -2.8 88 -6 -6 по сезону 996.1 976.7
12 21.02 З 4 4000 м слаб. ливневой снег 10/10 300 м
[Cb cap]
-2.0 -2.6 96 -8 -8 по сезону 995.9 976.5
15 21.02 СЗ 4
{11}
1000 м снег {ливн. осадки} 10/0 300 м
[As op]
-3.7 -4.0 98 -10 -10 по сезону 997.8 978.2 +0.8 5
18 21.02 СЗ 5
{11}
1000 м снег {метель} 10/0 300 м
[As op]
-5.3 -5.6 98 -13 -13 по сезону 999.6 979.9
21 21.02 СЗ 5-10
{13}
1000 м снег {метель} 10/0 300 м
[As op]
-7.2 -7.6 97 -15 -15 по сезону 1001.1 981.2
00 22.02 СЗ 4
{11}
4000 м слаб. снег {метель} 10/0 300 м
[As op]
-8.4 -8.9 96 -15 -15 по сезону 1002.5 982.4
03 22.02 СЗ 4
{10}
4000 м слаб. снег {метель} 10/8 300 м
[Sc Ac trans]
-8.8 -9.5 95 -16 -16 прохладно 1003.9 983.8 -8.8 10 45
06 22.02 С 4
{13}
10 км метель {снег} 10/10 300 м
[Sc]
-9.4 -12.8 76 -16 -16 прохладно 1007.0 986.7 -9.6
09 22.02 С 6-11
{13}
4000 м слаб. снег {метель} 9/9 300 м
[Sc]
-8.6 -12.1 76 -17 -17 холодно 1010.3 990.1
12 22.02 С 6-12
{13}
10 км метель {снег} 10/10 300 м
[Sc]
-8.9 -12.7 74 -17 -17 очень
холодно
1014.2 993.9
15 22.02 С 5
{12}
10 км метель {снег} 10/10 600 м
[Sc]
-9.4 -12.4 79 -17 -17 холодно 1018.5 998.1 -8.4 0.4
18 22.02 С 4
{11}
10 км слаб. снег {метель} 10/6 600 м
[Sc Ac As]
-8.7 -11.4 81 -16 -16 прохладно 1022.1 1001.7

 

Местоположение метеостанции Рязань (Рязанская область, Россия): широта 54.63 долгота 39.70 высота над уровнем моря 157 м.

В архиве по умолчанию представлена погода в Рязани за последнюю неделю. Архивные данные за месяц целиком и за предыдущие месяцы, начиная с января 2011 года, Вы можете получить, выбрав интересующий диапазон дат из раскрывающегося списка и нажав кнопку "Ввод!".


*Определитесь, кто Вы:
робот инопланетянин человек

Внимание! Время в таблицах - всемирное. Для получения местного времени необходимо прибавить поправку, которая равна 3 ч.

Смотрите также архив погоды в соседних городах и на ближайших метеорологических станциях:

Погода в Рыбном (Рязанская область, Россия) (13 км)
Погода в Старожилово (Рязанская область, Россия) (43 км)
Погода в Зарайске (Московская область, Россия) (57 км)
Погода в Луховицах (Московская область, Россия) (58 км)
Погода в Михайлове (Рязанская область, Россия) (62 км)
Погода в Серебряных Прудах (Московская область, Россия) (66 км)
Погода в Туме (Рязанская область, Россия) (78 км)
Погода в Коломне (Московская область, Россия) (83 км)
Погода в Шилово (Рязанская область, Россия) (85 км)
Погода в Егорьевске (Московская область, Россия) (94 км)

Пояснения к столбцам:

Ветер - указаны скорость ветра в м/с - средняя за 10 мин, порывы в срок и между сроками (в фигурных скобках) и направление, откуда дует ветер: С - северный, СВ - северо-восточный, В - восточный, ЮВ - юго-восточный, Ю - южный, ЮЗ - юго-западный, З - западный, СЗ - северо-западный.
Видимость - горизонтальная дальность видимости в метрах или километрах. При видимости от 1 до 10 км при отсутствии осадков обычно наблюдается дымка, при ухудшении видимости до 1 км и менее - туман. В сухую погоду видимость может ухудшаться дымом, пылью или мглою.
Явления - указаны атмосферные явления, наблюдавшиеся в срок или в последний час перед сроком; фигурными скобками обозначены явления, наблюдавшиеся между сроками (за 1-3 часа до срока); квадратными скобками обозначены град или гололедные отложения с указанием их диаметра в мм.
Облачность - указаны через наклонную черту общая и нижняя облачность в баллах и высота нижней границы облаков в метрах; квадратными скобками обозначены формы облаков: Ci - перистые, Cs - перисто-слоистые, Cc - перисто-кучевые, Ac - высококучевые, As - высокослоистые, Sc - слоисто-кучевые, Ns - слоисто-дождевые, Cu - кучевые, Cb - кучево-дождевые. Подробнее классификацию облаков см. в Атласе облаков (PDF).
T - Температура воздуха - температура, измеренная на высоте 2 м над землей.
Td - Температура точки росы - температура, при понижении до которой содержащийся в воздухе водяной пар достигнет насыщения.
f - Относительная влажность воздуха - влажноcть воздуха, измеренная на высоте 2 м над землей.
Te - Эффективная температура - температура, которую ощущает одетый по сезону человек в тени. Характеристика душности погоды. При расчете учитывается влияние влажности воздуха и скорости ветра на теплоощущения человека.
Tes - Эффективная температура на солнце - температура, которую ощущает человек, с поправкой на солнечный нагрев. Характеристика знойности погоды. Зависит от высоты солнца над горизонтом, облачности и скорости ветра. Ночью, в пасмурную погоду, а также при ветре 12 м/с и более поправка равна нулю.
P - Атмосферное давление - приведенное к уровню моря атмосферное давление.
Po - Атмосферное давление - измеренное на уровне метеостанции атмосферное давление.
Tmin - Минимальная температура - минимум температуры воздуха на высоте 2 м над землей.
Tmax - Максимальная температура - максимум температуры воздуха на высоте 2 м над землей.
R - Количество осадков - Количество выпавших осадков за период времени, мм. При наведении курсора мыши на число - период времени, за который выпало указанное количество осадков.
R24 - Количество осадков - Количество выпавших осадков за 24 часа, мм.
S - Снежный покров - Высота снежного покрова, см. При наведении курсора мыши на число - состояние снежного покрова и степень покрытия местности в баллах.